AAL1521 KMIA-KCLT

Flight info

Callsign AAL1521
Flight time 1h 38m
Altitude 37000
Route ALTNN2 DUCEN Q87 VIYAP CHECR STOCR4
Aircraft A21N/M-SDE2E3FGHIRWXY/LB1

Departure

Time 2026-05-04 00:58
Airport Miami International Airport (KMIA)

Arrival

Time 2026-05-04 02:37
Airport Charlotte Douglas International Airport (KCLT)
Time Latitude Longitude Altitude Speed Heading
2026-05-04 00:27 25.79819 -80.28412 14 ft 0 kts 178°
2026-05-04 00:41 25.79822 -80.28412 14 ft 2 kts 178°
2026-05-04 00:41 25.79837 -80.28413 14 ft 2 kts 178°
2026-05-04 00:42 25.79847 -80.28413 14 ft 2 kts 178°
2026-05-04 00:42 25.79854 -80.28413 14 ft 2 kts 178°
2026-05-04 00:42 25.79869 -80.28413 14 ft 2 kts 177°
2026-05-04 00:42 25.79883 -80.28409 14 ft 2 kts 233°
2026-05-04 00:43 25.79887 -80.28399 14 ft 0 kts 263°
2026-05-04 00:43 25.79887 -80.28392 14 ft 1 kts 268°
2026-05-04 00:43 25.79887 -80.28390 14 ft 0 kts 267°
2026-05-04 00:48 25.79887 -80.28391 14 ft 0 kts 267°
2026-05-04 00:49 25.79886 -80.28400 14 ft 2 kts 267°
2026-05-04 00:49 25.79890 -80.28420 14 ft 3 kts 305°
2026-05-04 00:49 25.79915 -80.28438 14 ft 5 kts 330°
2026-05-04 00:49 25.79940 -80.28471 14 ft 6 kts 302°
2026-05-04 00:50 25.79965 -80.28513 14 ft 6 kts 319°
2026-05-04 00:50 25.80006 -80.28544 14 ft 7 kts 317°
2026-05-04 00:50 25.80024 -80.28610 14 ft 12 kts 270°
2026-05-04 00:50 25.80020 -80.28707 14 ft 12 kts 268°
2026-05-04 00:51 25.80016 -80.28808 14 ft 13 kts 267°
2026-05-04 00:51 25.80012 -80.28912 15 ft 13 kts 268°
2026-05-04 00:51 25.80008 -80.29020 14 ft 14 kts 268°
2026-05-04 00:51 25.80004 -80.29134 14 ft 14 kts 268°
2026-05-04 00:52 25.80000 -80.29249 14 ft 15 kts 268°
2026-05-04 00:52 25.79996 -80.29369 14 ft 15 kts 266°
2026-05-04 00:52 25.79989 -80.29491 13 ft 16 kts 266°
2026-05-04 00:52 25.79983 -80.29616 13 ft 16 kts 267°
2026-05-04 00:53 25.79978 -80.29743 13 ft 16 kts 268°
2026-05-04 00:53 25.79973 -80.29871 13 ft 16 kts 268°
2026-05-04 00:53 25.79971 -80.29922 12 ft 0 kts 268°
2026-05-04 00:56 25.79971 -80.29931 12 ft 2 kts 268°
2026-05-04 00:57 25.79970 -80.29964 12 ft 6 kts 269°
2026-05-04 00:57 25.79979 -80.30020 12 ft 9 kts 285°
2026-05-04 00:57 25.80006 -80.30093 12 ft 10 kts 301°
2026-05-04 00:57 25.80063 -80.30115 12 ft 10 kts 49°
2026-05-04 00:58 25.80079 -80.29942 12 ft 48 kts 88°
2026-05-04 00:58 25.80109 -80.29230 14 ft 131 kts 88°
2026-05-04 00:58 25.80154 -80.27962 94 ft 189 kts 87°
2026-05-04 00:58 25.80227 -80.26577 1121 ft 179 kts 84°
2026-05-04 00:59 25.80290 -80.25173 1959 ft 190 kts 85°
2026-05-04 00:59 25.80351 -80.23675 2662 ft 207 kts 86°
2026-05-04 00:59 25.80418 -80.22005 3376 ft 226 kts 87°
2026-05-04 00:59 25.80488 -80.20213 3916 ft 246 kts 87°
2026-05-04 01:00 25.80792 -80.18283 4440 ft 265 kts 65°
2026-05-04 01:00 25.81927 -80.16650 4862 ft 275 kts 35°
2026-05-04 01:00 25.83701 -80.15818 5268 ft 280 kts
2026-05-04 01:00 25.85617 -80.15765 6209 ft 280 kts 357°
2026-05-04 01:01 25.87573 -80.15744 7141 ft 283 kts 356°
2026-05-04 01:01 25.89536 -80.15888 8000 ft 285 kts 347°
2026-05-04 01:01 25.91441 -80.16370 8831 ft 286 kts 340°
2026-05-04 01:01 25.93353 -80.17030 9661 ft 289 kts 338°
2026-05-04 01:02 25.95279 -80.17721 10372 ft 297 kts 337°
2026-05-04 01:02 25.97321 -80.18424 10824 ft 315 kts 340°
2026-05-04 01:02 25.99545 -80.18989 10983 ft 333 kts 346°
2026-05-04 01:02 26.01872 -80.19333 10990 ft 337 kts 350°
2026-05-04 01:03 26.04218 -80.19579 11031 ft 340 kts 351°
2026-05-04 01:03 26.06584 -80.19810 11487 ft 347 kts 351°
2026-05-04 01:03 26.09003 -80.20048 12345 ft 348 kts 351°
2026-05-04 01:03 26.11434 -80.20290 13122 ft 351 kts 350°
2026-05-04 01:04 26.13857 -80.20539 13791 ft 356 kts 350°
2026-05-04 01:04 26.16359 -80.20798 14511 ft 359 kts 349°
2026-05-04 01:04 26.18834 -80.21052 15218 ft 362 kts 349°
2026-05-04 01:04 26.21349 -80.21295 15917 ft 365 kts 349°
2026-05-04 01:05 26.23887 -80.21523 16595 ft 368 kts 349°
2026-05-04 01:05 26.26471 -80.21749 17229 ft 371 kts 349°
2026-05-04 01:05 26.29069 -80.21980 17831 ft 375 kts 349°
2026-05-04 01:05 26.31646 -80.22211 18429 ft 377 kts 349°
2026-05-04 01:06 26.34279 -80.22446 19023 ft 380 kts 348°
2026-05-04 01:06 26.36954 -80.22686 19582 ft 384 kts 348°
2026-05-04 01:06 26.39597 -80.22938 20084 ft 388 kts 347°
2026-05-04 01:06 26.42307 -80.23217 20636 ft 392 kts 347°
2026-05-04 01:07 26.45029 -80.23501 21202 ft 395 kts 347°
2026-05-04 01:07 26.47806 -80.23792 21718 ft 399 kts 347°
2026-05-04 01:07 26.50582 -80.24079 22209 ft 404 kts 347°
2026-05-04 01:07 26.53368 -80.24365 22730 ft 407 kts 347°
2026-05-04 01:08 26.56215 -80.24681 23218 ft 409 kts 345°
2026-05-04 01:08 26.59044 -80.25115 23693 ft 411 kts 343°
2026-05-04 01:08 26.61873 -80.25588 24154 ft 414 kts 343°
2026-05-04 01:08 26.64745 -80.26073 24612 ft 418 kts 343°
2026-05-04 01:09 26.67649 -80.26579 25074 ft 420 kts 342°
2026-05-04 01:09 26.70496 -80.27260 25536 ft 419 kts 338°
2026-05-04 01:09 26.73297 -80.28165 26007 ft 417 kts 333°
2026-05-04 01:09 26.76031 -80.29257 26416 ft 418 kts 331°
2026-05-04 01:10 26.78756 -80.30402 26803 ft 421 kts 330°
2026-05-04 01:10 26.81494 -80.31562 27227 ft 424 kts 330°
2026-05-04 01:10 26.84254 -80.32727 27641 ft 426 kts 330°
2026-05-04 01:10 26.87061 -80.33906 28048 ft 428 kts 330°
2026-05-04 01:11 26.89844 -80.35076 28410 ft 431 kts 330°
2026-05-04 01:11 26.92644 -80.36249 28782 ft 434 kts 330°
2026-05-04 01:11 26.95528 -80.37447 29103 ft 438 kts 330°
2026-05-04 01:11 26.98378 -80.38599 29446 ft 441 kts 331°
2026-05-04 01:12 27.01303 -80.39768 29793 ft 443 kts 331°
2026-05-04 01:12 27.04192 -80.40929 30116 ft 445 kts 330°
2026-05-04 01:12 27.07114 -80.42105 30465 ft 446 kts 330°
2026-05-04 01:12 27.10068 -80.43307 30784 ft 447 kts 329°
2026-05-04 01:13 27.12945 -80.44553 31075 ft 448 kts 328°
2026-05-04 01:13 27.15843 -80.45841 31412 ft 448 kts 328°
2026-05-04 01:13 27.18732 -80.47128 31796 ft 446 kts 328°
2026-05-04 01:13 27.21655 -80.48428 32189 ft 444 kts 328°
2026-05-04 01:14 27.24551 -80.49712 32562 ft 443 kts 327°
2026-05-04 01:14 27.27428 -80.50987 32903 ft 442 kts 327°
2026-05-04 01:14 27.30254 -80.52241 33077 ft 445 kts 327°
2026-05-04 01:14 27.33205 -80.53558 33199 ft 449 kts 327°
2026-05-04 01:15 27.36144 -80.54858 33352 ft 454 kts 328°
2026-05-04 01:15 27.39109 -80.56069 33512 ft 459 kts 329°
2026-05-04 01:15 27.42114 -80.57260 33909 ft 456 kts 329°
2026-05-04 01:15 27.45058 -80.58409 34679 ft 444 kts 329°
2026-05-04 01:16 27.47945 -80.59538 35307 ft 436 kts 328°
2026-05-04 01:16 27.50820 -80.60674 35650 ft 433 kts 328°
2026-05-04 01:16 27.53650 -80.61803 35788 ft 435 kts 327°
2026-05-04 01:16 27.56531 -80.62959 35902 ft 438 kts 327°
2026-05-04 01:17 27.59368 -80.64094 36095 ft 438 kts 327°
2026-05-04 01:17 27.62259 -80.65247 36270 ft 439 kts 327°
2026-05-04 01:17 27.65149 -80.66401 36478 ft 440 kts 327°
2026-05-04 01:17 27.68007 -80.67538 36848 ft 436 kts 327°
2026-05-04 01:18 27.70878 -80.68680 37063 ft 437 kts 326°
2026-05-04 01:18 27.76635 -80.70991 37065 ft 443 kts 327°
2026-05-04 01:19 27.82477 -80.73329 37064 ft 443 kts 327°
2026-05-04 01:19 27.88275 -80.75648 37067 ft 443 kts 326°
2026-05-04 01:20 27.94091 -80.77979 37063 ft 443 kts 326°
2026-05-04 01:20 27.99915 -80.80316 37072 ft 443 kts 326°
2026-05-04 01:21 28.05729 -80.82654 37075 ft 444 kts 326°
2026-05-04 01:21 28.11556 -80.84998 37071 ft 444 kts 326°
2026-05-04 01:22 28.17406 -80.87354 37077 ft 443 kts 326°
2026-05-04 01:22 28.23203 -80.89690 37080 ft 443 kts 325°
2026-05-04 01:23 28.29035 -80.92049 37078 ft 443 kts 325°
2026-05-04 01:23 28.34830 -80.94391 37083 ft 442 kts 325°
2026-05-04 01:24 28.40642 -80.96742 37085 ft 441 kts 325°
2026-05-04 01:24 28.46426 -80.99084 37087 ft 442 kts 325°
2026-05-04 01:25 28.52232 -81.01444 37087 ft 442 kts 325°
2026-05-04 01:25 28.58024 -81.03795 37084 ft 441 kts 325°
2026-05-04 01:26 28.63825 -81.06151 37088 ft 441 kts 324°
2026-05-04 01:26 28.69612 -81.08511 37086 ft 443 kts 324°
2026-05-04 01:27 28.75403 -81.10870 37089 ft 443 kts 324°
2026-05-04 01:27 28.81218 -81.13245 37094 ft 443 kts 324°
2026-05-04 01:28 28.87026 -81.15616 37093 ft 442 kts 324°
2026-05-04 01:28 28.92784 -81.17972 37092 ft 440 kts 324°
2026-05-04 01:29 28.98549 -81.20333 37095 ft 440 kts 324°
2026-05-04 01:29 29.04391 -81.22736 37095 ft 444 kts 324°
2026-05-04 01:30 29.10187 -81.25114 37109 ft 443 kts 324°
2026-05-04 01:30 29.15983 -81.27496 37100 ft 442 kts 324°
2026-05-04 01:31 29.21814 -81.29851 37100 ft 446 kts 327°
2026-05-04 01:31 29.27887 -81.31663 37114 ft 460 kts 334°
2026-05-04 01:32 29.34302 -81.32696 37101 ft 472 kts 341°
2026-05-04 01:32 29.40959 -81.33132 37110 ft 478 kts 343°
2026-05-04 01:33 29.47574 -81.33490 37102 ft 480 kts 344°
2026-05-04 01:33 29.54241 -81.33862 37111 ft 475 kts 344°
2026-05-04 01:34 29.60851 -81.34252 37110 ft 478 kts 344°
2026-05-04 01:34 29.67526 -81.34646 37095 ft 475 kts 344°
2026-05-04 01:35 29.74101 -81.35033 37114 ft 474 kts 344°
2026-05-04 01:35 29.80676 -81.35425 37110 ft 475 kts 344°
2026-05-04 01:36 29.87310 -81.35819 37113 ft 476 kts 345°
2026-05-04 01:36 29.93971 -81.36212 37120 ft 475 kts 344°
2026-05-04 01:37 30.00631 -81.36611 37123 ft 475 kts 345°
2026-05-04 01:37 30.07236 -81.37006 37122 ft 475 kts 345°
2026-05-04 01:38 30.13876 -81.37402 37118 ft 476 kts 345°
2026-05-04 01:38 30.20493 -81.37795 37124 ft 476 kts 345°
2026-05-04 01:39 30.27106 -81.38191 37125 ft 476 kts 345°
2026-05-04 01:39 30.33701 -81.38584 37114 ft 474 kts 345°
2026-05-04 01:40 30.40324 -81.38985 37120 ft 474 kts 345°
2026-05-04 01:40 30.46912 -81.39380 37127 ft 475 kts 346°
2026-05-04 01:41 30.53503 -81.39729 37131 ft 474 kts 346°
2026-05-04 01:41 30.60136 -81.40074 37122 ft 476 kts 346°
2026-05-04 01:42 30.66741 -81.40417 37123 ft 474 kts 346°
2026-05-04 01:42 30.73317 -81.40771 37132 ft 476 kts 346°
2026-05-04 01:43 30.79980 -81.41125 37130 ft 477 kts 347°
2026-05-04 01:43 30.86602 -81.41473 37118 ft 474 kts 346°
2026-05-04 01:44 30.93161 -81.41826 37061 ft 475 kts 347°
2026-05-04 01:44 30.96486 -81.42001 37216 ft 475 kts 347°
2026-05-04 01:44 30.99759 -81.42177 37083 ft 476 kts 347°
2026-05-04 01:45 31.06423 -81.42535 37147 ft 476 kts 347°
2026-05-04 01:45 31.16331 -81.43051 37133 ft 476 kts 348°
2026-05-04 01:46 31.23050 -81.42790 37123 ft 486 kts 356°
2026-05-04 01:46 31.29748 -81.41477 37134 ft 495 kts
2026-05-04 01:47 31.36375 -81.39119 37135 ft 496 kts 12°
2026-05-04 01:47 31.42860 -81.36428 37132 ft 494 kts 12°
2026-05-04 01:48 31.49357 -81.33746 37117 ft 493 kts 11°
2026-05-04 01:48 31.55842 -81.31088 37126 ft 493 kts 11°
2026-05-04 01:49 31.62323 -81.28434 37118 ft 493 kts 11°
2026-05-04 01:49 31.68777 -81.25790 37129 ft 493 kts 12°
2026-05-04 01:50 31.75277 -81.23124 37128 ft 492 kts 11°
2026-05-04 01:50 31.81749 -81.20466 37120 ft 492 kts 12°
2026-05-04 01:51 31.88214 -81.17806 37118 ft 491 kts 11°
2026-05-04 01:51 31.94627 -81.15163 37124 ft 492 kts 12°
2026-05-04 01:52 32.01128 -81.12479 37125 ft 491 kts 12°
2026-05-04 01:52 32.07555 -81.09822 37120 ft 491 kts 12°
2026-05-04 01:53 32.14056 -81.07131 37123 ft 490 kts 12°
2026-05-04 01:53 32.20496 -81.04463 37129 ft 490 kts 12°
2026-05-04 01:54 32.26969 -81.01775 37130 ft 490 kts 12°
2026-05-04 01:54 32.33378 -80.99109 37125 ft 490 kts 12°
2026-05-04 01:55 32.39813 -80.96433 37129 ft 490 kts 12°
2026-05-04 01:55 32.46248 -80.93746 37123 ft 490 kts 12°
2026-05-04 01:56 32.52673 -80.91062 37126 ft 490 kts 12°
2026-05-04 01:56 32.59106 -80.88369 37126 ft 489 kts 12°
2026-05-04 01:57 32.65548 -80.85670 37124 ft 489 kts 12°
2026-05-04 01:57 32.71881 -80.82806 37130 ft 492 kts 17°
2026-05-04 01:58 32.77997 -80.79124 37123 ft 493 kts 22°
2026-05-04 01:58 32.84014 -80.75178 37126 ft 492 kts 22°
2026-05-04 01:59 32.90014 -80.71248 37111 ft 492 kts 22°
2026-05-04 01:59 32.93004 -80.69302 36860 ft 494 kts 22°
2026-05-04 01:59 32.96035 -80.67326 36593 ft 495 kts 22°
2026-05-04 02:00 32.99022 -80.65378 36321 ft 494 kts 22°
2026-05-04 02:00 33.02070 -80.63390 36041 ft 495 kts 22°
2026-05-04 02:00 33.05104 -80.61410 35804 ft 496 kts 22°
2026-05-04 02:00 33.08086 -80.59463 35583 ft 496 kts 22°
2026-05-04 02:01 33.11124 -80.57475 35364 ft 496 kts 23°
2026-05-04 02:01 33.14177 -80.55479 35139 ft 496 kts 23°
2026-05-04 02:01 33.17220 -80.53487 34918 ft 497 kts 22°
2026-05-04 02:01 33.20249 -80.51500 34691 ft 497 kts 23°
2026-05-04 02:02 33.23287 -80.49508 34473 ft 497 kts 23°
2026-05-04 02:02 33.26305 -80.47526 34261 ft 496 kts 23°
2026-05-04 02:02 33.29336 -80.45536 34035 ft 497 kts 23°
2026-05-04 02:02 33.32326 -80.43571 33786 ft 497 kts 23°
2026-05-04 02:03 33.35382 -80.41565 33537 ft 496 kts 23°
2026-05-04 02:03 33.38371 -80.39597 33286 ft 495 kts 23°
2026-05-04 02:03 33.41404 -80.37598 33036 ft 494 kts 23°
2026-05-04 02:03 33.44391 -80.35628 32765 ft 494 kts 23°
2026-05-04 02:04 33.47440 -80.33616 32367 ft 493 kts 24°
2026-05-04 02:04 33.50428 -80.31644 31910 ft 493 kts 24°
2026-05-04 02:04 33.53442 -80.29650 31332 ft 493 kts 24°
2026-05-04 02:04 33.56412 -80.27681 30738 ft 491 kts 25°
2026-05-04 02:05 33.59382 -80.25713 30102 ft 490 kts 25°
2026-05-04 02:05 33.62378 -80.23724 29429 ft 488 kts 25°
2026-05-04 02:05 33.65339 -80.21756 28995 ft 481 kts 25°
2026-05-04 02:05 33.68225 -80.19835 28543 ft 475 kts 25°
2026-05-04 02:06 33.71075 -80.17935 28091 ft 469 kts 25°
2026-05-04 02:06 33.73930 -80.16035 27621 ft 464 kts 25°
2026-05-04 02:06 33.76724 -80.14175 27162 ft 459 kts 25°
2026-05-04 02:06 33.79491 -80.12331 26692 ft 454 kts 25°
2026-05-04 02:07 33.82262 -80.10482 26219 ft 449 kts 25°
2026-05-04 02:07 33.84959 -80.08683 25756 ft 445 kts 25°
2026-05-04 02:07 33.87639 -80.06892 25299 ft 441 kts 25°
2026-05-04 02:07 33.90337 -80.05089 24831 ft 437 kts 25°
2026-05-04 02:08 33.92955 -80.03337 24364 ft 433 kts 25°
2026-05-04 02:08 33.95581 -80.01578 23914 ft 430 kts 25°
2026-05-04 02:08 33.98246 -79.99977 23557 ft 417 kts 15°
2026-05-04 02:08 34.01023 -79.99499 23299 ft 403 kts 351°
2026-05-04 02:09 34.03778 -80.00387 23052 ft 414 kts 330°
2026-05-04 02:09 34.06258 -80.02247 22819 ft 431 kts 322°
2026-05-04 02:09 34.08781 -80.04279 22565 ft 439 kts 323°
2026-05-04 02:09 34.11346 -80.06287 22313 ft 439 kts 323°
2026-05-04 02:10 34.13936 -80.08276 22063 ft 437 kts 324°
2026-05-04 02:10 34.16519 -80.10240 21807 ft 434 kts 324°
2026-05-04 02:10 34.19045 -80.12149 21568 ft 432 kts 324°
2026-05-04 02:10 34.21614 -80.14086 21322 ft 430 kts 324°
2026-05-04 02:11 34.24128 -80.15977 21082 ft 429 kts 324°
2026-05-04 02:11 34.26664 -80.17886 20830 ft 427 kts 324°
2026-05-04 02:11 34.29192 -80.19785 20582 ft 425 kts 324°
2026-05-04 02:11 34.31694 -80.21667 20339 ft 423 kts 324°
2026-05-04 02:12 34.34198 -80.23551 20106 ft 422 kts 324°
2026-05-04 02:12 34.36660 -80.25407 19858 ft 420 kts 324°
2026-05-04 02:12 34.39156 -80.27289 19609 ft 418 kts 324°
2026-05-04 02:12 34.41618 -80.29144 19299 ft 411 kts 324°
2026-05-04 02:13 34.43988 -80.30931 18922 ft 401 kts 324°
2026-05-04 02:13 34.46329 -80.32698 18552 ft 390 kts 324°
2026-05-04 02:13 34.48618 -80.34427 18180 ft 381 kts 324°
2026-05-04 02:13 34.50816 -80.36089 17823 ft 372 kts 324°
2026-05-04 02:14 34.52998 -80.37741 17477 ft 363 kts 324°
2026-05-04 02:14 34.55099 -80.39332 17233 ft 352 kts 324°
2026-05-04 02:14 34.57149 -80.40885 16986 ft 342 kts 324°
2026-05-04 02:14 34.59141 -80.42396 16744 ft 336 kts 324°
2026-05-04 02:15 34.61105 -80.43889 16499 ft 336 kts 325°
2026-05-04 02:15 34.63100 -80.45406 16256 ft 334 kts 325°
2026-05-04 02:15 34.65053 -80.46890 16012 ft 333 kts 325°
2026-05-04 02:15 34.67010 -80.48378 15767 ft 332 kts 325°
2026-05-04 02:16 34.68970 -80.49869 15527 ft 330 kts 325°
2026-05-04 02:16 34.70921 -80.51352 15280 ft 329 kts 325°
2026-05-04 02:16 34.72842 -80.52814 15034 ft 327 kts 326°
2026-05-04 02:16 34.74777 -80.54288 14782 ft 326 kts 326°
2026-05-04 02:17 34.76699 -80.55753 14531 ft 325 kts 326°
2026-05-04 02:17 34.78610 -80.57210 14288 ft 324 kts 326°
2026-05-04 02:17 34.80518 -80.58665 14040 ft 323 kts 326°
2026-05-04 02:17 34.82417 -80.60115 13793 ft 322 kts 326°
2026-05-04 02:18 34.84312 -80.61562 13551 ft 321 kts 326°
2026-05-04 02:18 34.86214 -80.63014 13309 ft 320 kts 326°
2026-05-04 02:18 34.88087 -80.64445 13034 ft 318 kts 326°
2026-05-04 02:18 34.89954 -80.65875 12745 ft 317 kts 326°
2026-05-04 02:19 34.91825 -80.67307 12362 ft 315 kts 326°
2026-05-04 02:19 34.93669 -80.68720 11988 ft 313 kts 326°
2026-05-04 02:19 34.95512 -80.70132 11587 ft 310 kts 326°
2026-05-04 02:19 34.97303 -80.71505 11337 ft 302 kts 326°
2026-05-04 02:20 34.99049 -80.72842 11208 ft 289 kts 326°
2026-05-04 02:20 35.00722 -80.74149 11072 ft 277 kts 324°
2026-05-04 02:20 35.02233 -80.75520 10985 ft 268 kts 320°
2026-05-04 02:20 35.03660 -80.77001 11000 ft 270 kts 318°
2026-05-04 02:21 35.05086 -80.78518 10998 ft 271 kts 318°
2026-05-04 02:21 35.06490 -80.80018 10776 ft 272 kts 318°
2026-05-04 02:21 35.08006 -80.81435 10374 ft 272 kts 330°
2026-05-04 02:21 35.09784 -80.82143 10138 ft 266 kts 349°
2026-05-04 02:22 35.11609 -80.82333 10104 ft 252 kts 353°
2026-05-04 02:22 35.13306 -80.82471 10033 ft 239 kts 353°
2026-05-04 02:22 35.14956 -80.82608 10005 ft 235 kts 353°
2026-05-04 02:22 35.16602 -80.82744 10007 ft 236 kts 352°
2026-05-04 02:23 35.18231 -80.82880 10004 ft 236 kts 352°
2026-05-04 02:23 35.19876 -80.83017 10005 ft 236 kts 352°
2026-05-04 02:23 35.21521 -80.83155 10005 ft 236 kts 352°
2026-05-04 02:23 35.23170 -80.83294 10006 ft 236 kts 352°
2026-05-04 02:24 35.24796 -80.83432 10006 ft 236 kts 352°
2026-05-04 02:24 35.26428 -80.83569 10005 ft 236 kts 352°
2026-05-04 02:24 35.28059 -80.83708 10005 ft 235 kts 352°
2026-05-04 02:24 35.29699 -80.83847 10008 ft 235 kts 352°
2026-05-04 02:25 35.31342 -80.83987 10010 ft 235 kts 352°
2026-05-04 02:25 35.32966 -80.84145 10006 ft 235 kts 351°
2026-05-04 02:25 35.34614 -80.84323 10005 ft 235 kts 351°
2026-05-04 02:25 35.36250 -80.84503 10006 ft 236 kts 351°
2026-05-04 02:26 35.37869 -80.84679 10008 ft 235 kts 351°
2026-05-04 02:26 35.39513 -80.84856 10011 ft 235 kts 351°
2026-05-04 02:26 35.41156 -80.85034 10008 ft 235 kts 351°
2026-05-04 02:26 35.42793 -80.85210 10008 ft 235 kts 351°
2026-05-04 02:27 35.44418 -80.85387 10008 ft 235 kts 351°
2026-05-04 02:27 35.46043 -80.85561 10007 ft 235 kts 351°
2026-05-04 02:27 35.47676 -80.85739 10015 ft 235 kts 351°
2026-05-04 02:27 35.49313 -80.85916 10009 ft 235 kts 351°
2026-05-04 02:28 35.50925 -80.86091 10005 ft 235 kts 351°
2026-05-04 02:28 35.52557 -80.86268 10005 ft 235 kts 351°
2026-05-04 02:28 35.54187 -80.86445 10003 ft 235 kts 351°
2026-05-04 02:28 35.55825 -80.86623 10017 ft 235 kts 351°
2026-05-04 02:29 35.57454 -80.86799 10008 ft 234 kts 351°
2026-05-04 02:29 35.59058 -80.86972 9830 ft 231 kts 351°
2026-05-04 02:29 35.60640 -80.87386 9425 ft 228 kts 329°
2026-05-04 02:29 35.61738 -80.88661 9250 ft 217 kts 298°
2026-05-04 02:30 35.62037 -80.90407 9099 ft 211 kts 265°
2026-05-04 02:30 35.61460 -80.92027 8940 ft 211 kts 233°
2026-05-04 02:30 35.60376 -80.93219 8792 ft 207 kts 216°
2026-05-04 02:30 35.59016 -80.93828 8516 ft 212 kts 197°
2026-05-04 02:31 35.57523 -80.94154 7986 ft 225 kts 193°
2026-05-04 02:31 35.55902 -80.94490 7586 ft 242 kts 194°
2026-05-04 02:31 35.54228 -80.94872 7128 ft 248 kts 194°
2026-05-04 02:31 35.52497 -80.95295 6489 ft 260 kts 194°
2026-05-04 02:32 35.50723 -80.95744 6084 ft 265 kts 193°
2026-05-04 02:32 35.48844 -80.95933 5931 ft 272 kts 181°
2026-05-04 02:32 35.46968 -80.95801 5627 ft 270 kts 178°
2026-05-04 02:32 35.45098 -80.95606 5321 ft 268 kts 178°
2026-05-04 02:33 35.43247 -80.95418 5008 ft 266 kts 178°
2026-05-04 02:33 35.41400 -80.95242 4562 ft 268 kts 178°
2026-05-04 02:33 35.39552 -80.95076 4127 ft 258 kts 178°
2026-05-04 02:33 35.37833 -80.94925 3788 ft 242 kts 178°
2026-05-04 02:34 35.36190 -80.94787 3470 ft 229 kts 178°
2026-05-04 02:34 35.34638 -80.94657 3157 ft 220 kts 178°
2026-05-04 02:34 35.33136 -80.94529 2795 ft 213 kts 178°
2026-05-04 02:34 35.31673 -80.94404 2532 ft 202 kts 178°
2026-05-04 02:35 35.30329 -80.94287 2336 ft 187 kts 178°
2026-05-04 02:35 35.29073 -80.94179 2087 ft 174 kts 178°
2026-05-04 02:35 35.27902 -80.94079 1820 ft 162 kts 178°
2026-05-04 02:35 35.26818 -80.93986 1587 ft 150 kts 178°
2026-05-04 02:36 35.25817 -80.93902 1395 ft 142 kts 178°
2026-05-04 02:36 35.24816 -80.93830 1197 ft 142 kts 178°
2026-05-04 02:36 35.23840 -80.93745 1016 ft 141 kts 176°
2026-05-04 02:36 35.22860 -80.93645 857 ft 141 kts 177°
2026-05-04 02:37 35.21881 -80.93572 735 ft 129 kts 177°
2026-05-04 02:37 35.21288 -80.93516 726 ft 46 kts 175°
2026-05-04 02:37 35.21055 -80.93508 722 ft 13 kts 185°
2026-05-04 02:37 35.20974 -80.93524 721 ft 12 kts 200°
2026-05-04 02:38 35.20930 -80.93545 720 ft 6 kts 201°
2026-05-04 02:38 35.20883 -80.93569 720 ft 7 kts 222°
2026-05-04 02:38 35.20912 -80.93607 720 ft 10 kts 343°
2026-05-04 02:38 35.20981 -80.93623 721 ft 10 kts 355°
2026-05-04 02:39 35.21050 -80.93630 722 ft 9 kts 356°
2026-05-04 02:39 35.21119 -80.93635 723 ft 9 kts 357°
2026-05-04 02:39 35.21186 -80.93639 725 ft 9 kts 357°
2026-05-04 02:39 35.21251 -80.93644 726 ft 9 kts 356°
2026-05-04 02:40 35.21316 -80.93649 727 ft 9 kts 354°
2026-05-04 02:40 35.21381 -80.93662 728 ft 9 kts 342°
2026-05-04 02:40 35.21438 -80.93702 729 ft 9 kts 322°
2026-05-04 02:40 35.21491 -80.93752 729 ft 9 kts 320°
2026-05-04 02:41 35.21541 -80.93808 729 ft 9 kts 317°
2026-05-04 02:41 35.21590 -80.93864 729 ft 9 kts 316°
2026-05-04 02:41 35.21639 -80.93922 729 ft 9 kts 316°
2026-05-04 02:41 35.21689 -80.93977 729 ft 9 kts 319°
2026-05-04 02:42 35.21722 -80.94027 729 ft 6 kts 278°
2026-05-04 02:42 35.21708 -80.94083 728 ft 7 kts 241°
2026-05-04 02:42 35.21685 -80.94152 726 ft 9 kts 248°
2026-05-04 02:42 35.21670 -80.94240 724 ft 11 kts 266°
2026-05-04 02:43 35.21670 -80.94342 722 ft 12 kts 284°
2026-05-04 02:43 35.21727 -80.94375 723 ft 9 kts
2026-05-04 02:43 35.21785 -80.94390 724 ft 7 kts 352°
2026-05-04 02:43 35.21830 -80.94398 725 ft 5 kts 352°
2026-05-04 02:44 35.21865 -80.94404 726 ft 4 kts 351°
2026-05-04 02:44 35.21890 -80.94408 726 ft 3 kts 351°
2026-05-04 02:44 35.21907 -80.94412 726 ft 1 kts 349°
2026-05-04 02:44 35.21916 -80.94415 726 ft 0 kts 349°
2026-05-04 02:45 35.21918 -80.94415 726 ft 0 kts 349°
2026-05-04 02:48 35.21920 -80.94415 726 ft 1 kts 349°
2026-05-04 02:48 35.21939 -80.94431 727 ft 2 kts 316°
2026-05-04 02:48 35.21948 -80.94444 727 ft 1 kts 303°
2026-05-04 02:49 35.21952 -80.94451 727 ft 0 kts 303°